Radiation Dose at Monitoring Post of Fukushima Daini Nuclear Power Station
Date,Time,MP-1(microSv/h),MP-2(microSv/h),MP-3(microSv/h),MP-4(microSv/h),MP-5(microSv/h),MP-6(microSv/h),MP-7(microSv/h),Wind Direction,Wind Velocity(m/s),Rain
2019/05/31,00:00,0.195,0.178,0.296,0.279,0.272,0.149,0.091,south-southwest,6.5,No
2019/05/31,00:10,0.194,0.177,0.299,0.279,0.271,0.148,0.091,south-southwest,6.7,No
2019/05/31,00:20,0.194,0.176,0.296,0.279,0.273,0.149,0.091,south-southwest,7.0,No
2019/05/31,00:30,0.194,0.176,0.298,0.279,0.272,0.149,0.091,south-southwest,7.1,No
2019/05/31,00:40,0.194,0.178,0.295,0.280,0.272,0.148,0.091,south-southwest,7.0,No
2019/05/31,00:50,0.194,0.175,0.297,0.279,0.272,0.149,0.091,south,6.4,No
2019/05/31,01:00,0.194,0.178,0.296,0.280,0.271,0.149,0.092,south,5.0,No
2019/05/31,01:10,0.195,0.177,0.298,0.280,0.272,0.149,0.092,south,4.9,No
2019/05/31,01:20,0.193,0.175,0.294,0.280,0.273,0.148,0.091,south,5.9,No
2019/05/31,01:30,0.195,0.178,0.298,0.279,0.272,0.149,0.091,south,5.7,No
2019/05/31,01:40,0.194,0.176,0.295,0.279,0.273,0.148,0.091,south,6.5,No
2019/05/31,01:50,0.194,0.178,0.298,0.280,0.272,0.150,0.091,south,5.7,No
2019/05/31,02:00,0.195,0.176,0.295,0.279,0.271,0.149,0.091,south,5.9,No
2019/05/31,02:10,0.195,0.177,0.297,0.279,0.272,0.150,0.091,south,7.4,No
2019/05/31,02:20,0.193,0.177,0.296,0.280,0.273,0.148,0.092,south,6.6,No
2019/05/31,02:30,0.195,0.178,0.299,0.282,0.273,0.149,0.091,south-southwest,5.6,No
2019/05/31,02:40,0.194,0.177,0.297,0.278,0.272,0.148,0.091,south,4.0,No
2019/05/31,02:50,0.195,0.176,0.298,0.280,0.274,0.149,0.092,south,5.7,No
2019/05/31,03:00,0.194,0.178,0.296,0.279,0.271,0.149,0.092,south,5.2,No
2019/05/31,03:10,0.195,0.178,0.296,0.280,0.275,0.149,0.091,south,4.5,No
2019/05/31,03:20,0.195,0.178,0.297,0.280,0.271,0.148,0.091,south,6.1,No
2019/05/31,03:30,0.195,0.178,0.297,0.280,0.274,0.149,0.092,south,5.2,No
2019/05/31,03:40,0.193,0.178,0.298,0.279,0.272,0.150,0.091,south,6.0,No
2019/05/31,03:50,0.195,0.177,0.296,0.279,0.274,0.148,0.092,south,5.6,No
2019/05/31,04:00,0.194,0.178,0.297,0.281,0.272,0.148,0.092,south,6.4,No
2019/05/31,04:10,0.194,0.176,0.295,0.279,0.273,0.149,0.092,south,7.0,No
2019/05/31,04:20,0.195,0.176,0.297,0.281,0.271,0.149,0.091,south,7.0,No
2019/05/31,04:30,0.194,0.177,0.295,0.279,0.273,0.149,0.091,south,6.0,No
2019/05/31,04:40,0.196,0.177,0.298,0.280,0.272,0.148,0.091,south-southwest,7.0,No
2019/05/31,04:50,0.194,0.176,0.297,0.279,0.272,0.148,0.091,south-southwest,8.1,No
2019/05/31,05:00,0.195,0.177,0.297,0.280,0.272,0.148,0.091,south-southwest,7.7,No
2019/05/31,05:10,0.194,0.177,0.298,0.281,0.272,0.149,0.092,south,7.8,No
2019/05/31,05:20,0.195,0.177,0.296,0.280,0.272,0.149,0.092,south,7.3,No
2019/05/31,05:30,0.194,0.177,0.297,0.279,0.272,0.148,0.090,south,6.6,No
2019/05/31,05:40,0.195,0.176,0.296,0.278,0.271,0.148,0.092,south,6.6,No
2019/05/31,05:50,0.194,0.177,0.295,0.279,0.273,0.149,0.091,south,6.2,No
2019/05/31,06:00,0.195,0.177,0.296,0.278,0.271,0.149,0.092,south,6.2,No
2019/05/31,06:10,0.193,0.176,0.297,0.279,0.273,0.148,0.091,south,6.8,No
2019/05/31,06:20,0.195,0.176,0.296,0.279,0.270,0.148,0.091,south,7.7,No
2019/05/31,06:30,0.193,0.177,0.297,0.279,0.273,0.149,0.091,south,8.4,No
2019/05/31,06:40,0.195,0.176,0.296,0.279,0.269,0.148,0.090,south,9.6,No
2019/05/31,06:50,0.195,0.177,0.296,0.278,0.272,0.149,0.091,south,9.2,No
2019/05/31,07:00,0.194,0.176,0.296,0.280,0.271,0.148,0.092,south,8.9,No
2019/05/31,07:10,0.194,0.177,0.295,0.278,0.273,0.149,0.091,south,9.2,No
2019/05/31,07:20,0.194,0.177,0.296,0.281,0.272,0.149,0.092,south,8.8,No
2019/05/31,07:30,0.195,0.176,0.295,0.278,0.270,0.149,0.091,south,7.0,No
2019/05/31,07:40,0.194,0.177,0.298,0.280,0.273,0.148,0.091,south,8.1,No
2019/05/31,07:50,0.193,0.176,0.294,0.279,0.273,0.148,0.092,south,7.6,No
2019/05/31,08:00,0.193,0.177,0.296,0.278,0.271,0.149,0.091,south,8.2,No
2019/05/31,08:10,0.192,0.176,0.296,0.281,0.274,0.146,0.092,south,7.7,No
2019/05/31,08:20,0.196,0.176,0.294,0.279,0.270,0.149,0.091,south,8.3,No
2019/05/31,08:30,0.194,0.175,0.295,0.276,0.269,0.148,0.091,south,7.9,No
2019/05/31,08:40,0.192,0.177,0.297,0.276,0.271,0.147,0.090,south-southeast,9.5,No
2019/05/31,08:50,0.193,0.176,0.296,0.280,0.273,0.149,0.090,south-southeast,9.8,No
2019/05/31,09:00,0.194,0.175,0.292,0.278,0.269,0.148,0.092,south-southeast,9.8,No
2019/05/31,09:10,0.193,0.177,0.297,0.276,0.271,0.148,0.091,south-southeast,9.6,No
2019/05/31,09:20,0.195,0.177,0.297,0.282,0.274,0.149,0.091,south-southeast,10.3,No
2019/05/31,09:30,0.195,0.176,0.295,0.280,0.271,0.148,0.091,south,11.0,No
2019/05/31,09:40,0.193,0.178,0.298,0.277,0.269,0.148,0.091,south-southeast,9.8,No
2019/05/31,09:50,0.195,0.177,0.295,0.279,0.272,0.149,0.092,south-southeast,8.4,No
2019/05/31,10:00,0.195,0.175,0.295,0.281,0.273,0.149,0.091,south-southeast,10.1,No
2019/05/31,10:10,0.193,0.177,0.296,0.277,0.271,0.147,0.092,south-southeast,10.4,No
2019/05/31,10:20,0.196,0.176,0.296,0.279,0.271,0.148,0.091,south,9.0,No
2019/05/31,10:30,0.195,0.176,0.296,0.280,0.274,0.148,0.091,south-southeast,10.4,No
2019/05/31,10:40,0.193,0.177,0.298,0.278,0.271,0.148,0.091,south-southeast,11.7,No
2019/05/31,10:50,0.194,0.177,0.295,0.280,0.269,0.149,0.091,south-southeast,11.8,No
2019/05/31,11:00,0.195,0.176,0.295,0.281,0.273,0.149,0.091,south,11.8,No
2019/05/31,11:10,0.193,0.177,0.298,0.279,0.273,0.148,0.091,south-southeast,11.0,No
2019/05/31,11:20,0.192,0.177,0.296,0.278,0.271,0.148,0.091,south-southeast,11.2,No
2019/05/31,11:30,0.196,0.176,0.295,0.281,0.272,0.149,0.091,south,12.0,No
2019/05/31,11:40,0.194,0.176,0.297,0.278,0.274,0.148,0.092,south,11.3,No
2019/05/31,11:50,0.192,0.176,0.297,0.279,0.273,0.149,0.090,south,9.2,No
2019/05/31,12:00,0.196,0.178,0.296,0.282,0.270,0.149,0.091,south,9.3,No
2019/05/31,12:10,0.194,0.175,0.299,0.279,0.275,0.148,0.091,south,8.9,No
2019/05/31,12:20,0.192,0.177,0.296,0.278,0.272,0.148,0.091,south-southeast,8.4,No
2019/05/31,12:30,0.192,0.178,0.295,0.280,0.271,0.149,0.091,south-southeast,8.7,No
2019/05/31,12:40,0.195,0.177,0.294,0.281,0.269,0.148,0.090,south,9.5,No
2019/05/31,12:50,0.194,0.176,0.293,0.278,0.270,0.147,0.091,south,10.3,No
2019/05/31,13:00,0.193,0.175,0.298,0.277,0.270,0.148,0.092,south-southeast,9.2,No
2019/05/31,13:10,0.192,0.178,0.298,0.280,0.274,0.148,0.091,south-southeast,9.0,No
2019/05/31,13:20,0.194,0.177,0.295,0.281,0.274,0.149,0.091,south-southeast,10.4,No
2019/05/31,13:30,0.196,0.176,0.295,0.279,0.271,0.148,0.091,south,10.3,No
2019/05/31,13:40,0.194,0.176,0.299,0.277,0.269,0.148,0.091,south,10.4,No
2019/05/31,13:50,0.192,0.175,0.299,0.278,0.270,0.149,0.090,south,9.6,No
2019/05/31,14:00,0.192,0.177,0.295,0.282,0.270,0.149,0.090,south,10.6,No
2019/05/31,14:10,0.195,0.178,0.295,0.280,0.273,0.149,0.091,south,9.8,No
2019/05/31,14:20,0.196,0.177,0.299,0.278,0.272,0.150,0.092,south,9.3,No
2019/05/31,14:30,0.194,0.175,0.297,0.282,0.270,0.149,0.090,south-southwest,10.0,No
2019/05/31,14:40,0.194,0.178,0.295,0.281,0.275,0.148,0.091,south-southwest,9.2,No
2019/05/31,14:50,0.195,0.175,0.300,0.279,0.272,0.148,0.091,south,7.5,No
2019/05/31,15:00,0.194,0.177,0.296,0.281,0.272,0.149,0.090,south,7.7,No
2019/05/31,15:10,0.194,0.179,0.296,0.281,0.274,0.149,0.091,south-southwest,6.3,No
2019/05/31,15:20,0.195,0.176,0.299,0.280,0.274,0.148,0.091,south-southwest,7.7,No
2019/05/31,15:30,0.194,0.177,0.296,0.284,0.270,0.149,0.090,south,7.1,No
2019/05/31,15:40,0.194,0.178,0.298,0.280,0.275,0.150,0.092,south-southwest,9.6,No
2019/05/31,15:50,0.196,0.176,0.298,0.279,0.274,0.148,0.091,south,9.8,No
2019/05/31,16:00,0.194,0.177,0.296,0.282,0.270,0.149,0.091,south,9.0,No
2019/05/31,16:10,0.194,0.178,0.299,0.279,0.273,0.149,0.092,south,7.6,No
2019/05/31,16:20,0.196,0.177,0.299,0.281,0.274,0.148,0.090,south,7.6,No
2019/05/31,16:30,0.194,0.177,0.295,0.282,0.270,0.148,0.091,south,7.9,No
2019/05/31,16:40,0.194,0.177,0.298,0.279,0.275,0.150,0.091,south,7.1,No
2019/05/31,16:50,0.196,0.177,0.297,0.283,0.273,0.149,0.090,south,7.4,No
2019/05/31,17:00,0.194,0.178,0.298,0.280,0.272,0.150,0.092,south,6.6,No
2019/05/31,17:10,0.195,0.177,0.298,0.281,0.275,0.150,0.091,south,7.3,No
2019/05/31,17:20,0.195,0.178,0.295,0.281,0.271,0.149,0.091,south,7.6,Yes
2019/05/31,17:30,0.193,0.177,0.299,0.279,0.273,0.149,0.091,south,7.0,No
2019/05/31,17:40,0.196,0.177,0.297,0.282,0.273,0.149,0.091,south,6.8,No
2019/05/31,17:50,0.194,0.179,0.299,0.280,0.272,0.148,0.092,south,7.0,No
2019/05/31,18:00,0.196,0.176,0.297,0.282,0.275,0.150,0.091,south,8.1,No
2019/05/31,18:10,0.195,0.178,0.297,0.281,0.272,0.148,0.092,south,9.2,Yes
2019/05/31,18:20,0.195,0.178,0.299,0.280,0.275,0.149,0.092,south,7.9,Yes
2019/05/31,18:30,0.196,0.178,0.298,0.282,0.274,0.149,0.091,south-southwest,8.1,Yes
2019/05/31,18:40,0.194,0.178,0.301,0.280,0.273,0.150,0.091,south,7.3,Yes
2019/05/31,18:50,0.197,0.179,0.298,0.284,0.273,0.150,0.092,south,6.2,Yes
2019/05/31,19:00,0.196,0.180,0.301,0.281,0.273,0.150,0.093,south,5.4,Yes
2019/05/31,19:10,0.196,0.179,0.299,0.284,0.276,0.150,0.092,south-southwest,6.3,Yes
2019/05/31,19:20,0.196,0.179,0.300,0.282,0.273,0.149,0.092,southwest,6.2,Yes
2019/05/31,19:30,0.196,0.178,0.300,0.282,0.276,0.152,0.093,south-southwest,4.2,Yes
2019/05/31,19:40,0.197,0.179,0.298,0.284,0.274,0.151,0.093,south-southwest,2.6,Yes
2019/05/31,19:50,0.195,0.178,0.299,0.281,0.274,0.150,0.093,west-southwest,2.0,Yes
2019/05/31,20:00,0.198,0.180,0.298,0.284,0.275,0.151,0.093,northwest,2.9,Yes
2019/05/31,20:10,0.195,0.178,0.301,0.280,0.273,0.150,0.093,north-northwest,3.7,Yes
2019/05/31,20:20,0.197,0.179,0.298,0.284,0.275,0.150,0.094,north-northwest,3.9,Yes
2019/05/31,20:30,0.196,0.179,0.301,0.281,0.273,0.150,0.093,north-northwest,3.1,Yes
2019/05/31,20:40,0.197,0.179,0.298,0.284,0.276,0.151,0.092,north-northwest,2.7,No
2019/05/31,20:50,0.196,0.178,0.301,0.282,0.273,0.151,0.092,-,CALM,Yes
2019/05/31,21:00,0.196,0.180,0.297,0.283,0.275,0.150,0.092,north-northwest,2.8,Yes
2019/05/31,21:10,0.196,0.179,0.300,0.283,0.273,0.150,0.093,northwest,3.1,Yes
2019/05/31,21:20,0.197,0.180,0.300,0.283,0.277,0.153,0.095,north-northwest,3.5,Yes
2019/05/31,21:30,0.197,0.181,0.303,0.283,0.275,0.153,0.095,north-northwest,4.8,Yes
2019/05/31,21:40,0.198,0.181,0.299,0.284,0.275,0.152,0.094,north-northwest,5.2,Yes
2019/05/31,21:50,0.197,0.180,0.300,0.282,0.274,0.152,0.096,north-northwest,4.4,Yes
2019/05/31,22:00,0.198,0.179,0.298,0.281,0.274,0.151,0.094,north-northwest,2.3,Yes
2019/05/31,22:10,0.196,0.178,0.299,0.282,0.273,0.151,0.095,north,1.6,Yes
2019/05/31,22:20,0.197,0.179,0.299,0.282,0.274,0.151,0.093,north-northeast,1.3,Yes
2019/05/31,22:30,0.196,0.180,0.300,0.281,0.272,0.151,0.093,north,1.6,Yes
2019/05/31,22:40,0.197,0.180,0.297,0.282,0.275,0.152,0.093,north-northwest,1.7,Yes
2019/05/31,22:50,0.195,0.179,0.300,0.280,0.274,0.151,0.093,north-northwest,1.8,Yes
2019/05/31,23:00,0.198,0.180,0.299,0.283,0.272,0.151,0.094,north-northwest,1.3,Yes
2019/05/31,23:10,0.196,0.178,0.299,0.281,0.273,0.150,0.094,north-northwest,1.0,Yes
2019/05/31,23:20,0.196,0.179,0.299,0.281,0.273,0.151,0.093,northwest,0.8,Yes
2019/05/31,23:30,0.195,0.179,0.300,0.279,0.273,0.150,0.093,north-northeast,0.9,Yes
2019/05/31,23:40,0.197,0.179,0.298,0.282,0.272,0.150,0.093,north,2.1,Yes
2019/05/31,23:50,0.195,0.177,0.298,0.280,0.274,0.150,0.092,north-northwest,1.5,Yes
